EW9372 Weather Reports


Display with metric or nautical units.
time (UTC)temp
F
wind
direction
speed
MPH
gust
MPH
rain 1hr
in
rain 24hr
in
rain mn
in
humidity
%
barometer
mb
20200811072857 69 211 5.0 10.0 0.00 0.00 0.00 58 1008.1
20200811072357 69 222 5.0 10.0 0.00 0.00 0.00 58 1008.1
20200811071858 70 209 5.0 10.0 0.00 0.00 0.00 57 1008.2
20200811071358 70 199 6.0 12.0 0.00 0.00 0.00 57 1008.3
20200811070858 70 217 6.0 12.0 0.00 0.00 0.00 57 1008.2
20200811070359 70 180 5.0 12.0 0.00 0.00 0.00 56 1008.2
20200811065858 71 255 5.0 12.0 0.00 0.00 0.00 55 1008.1
20200811065352 71 219 5.0 4.0 0.00 0.00 0.00 55 1008.1
20200811064020 71 179 5.0 10.0 0.00 0.00 0.00 53 1008.1
20200811063519 72 195 5.0 11.0 0.00 0.00 0.00 52 1008.1
20200811063021 72 162 6.0 11.0 0.00 0.00 0.00 52 1007.9
20200811062451 72 207 6.0 11.0 0.00 0.00 0.00 51 1008.0
20200811061951 73 175 6.0 10.0 0.00 0.00 0.00 51 1008.0
20200811061451 73 163 6.0 12.0 0.00 0.00 0.00 50 1008.0
20200811060952 73 195 6.0 12.0 0.00 0.00 0.00 50 1008.1
20200811060452 74 141 6.0 12.0 0.00 0.00 0.00 49 1008.2
20200811055951 74 207 6.0 13.0 0.00 0.00 0.00 48 1008.2
20200811055450 74 168 5.0 13.0 0.00 0.00 0.00 47 1008.2
20200811054953 75 205 5.0 11.0 0.00 0.00 0.00 47 1008.3
20200811054446 75 188 5.0 10.0 0.00 0.00 0.00 46 1008.2
20200811053948 75 211 4.0 4.0 0.00 0.00 0.00 46 1008.3
20200811052852 76 178 3.0 7.0 0.00 0.00 0.00 46 1008.5
20200811052357 76 171 3.0 4.0 0.00 0.00 0.00 46 1008.7
20200811050933 77 182 3.0 7.0 0.00 0.00 0.00 46 1008.5
20200811050434 78 178 4.0 7.0 0.00 0.00 0.00 46 1008.6
20200811045935 78 207 4.0 9.0 0.00 0.00 0.00 45 1008.5
20200811045435 78 199 4.0 10.0 0.00 0.00 0.00 45 1008.5
20200811044926 79 206 4.0 10.0 0.00 0.00 0.00 45 1008.3
20200811044427 79 121 4.0 9.0 0.00 0.00 0.00 44 1008.3
20200811043928 80 223 4.0 7.0 0.00 0.00 0.00 44 1008.1
20200811043421 80 155 4.0 12.0 0.00 0.00 0.00 43 1008.1
20200811042920 81 221 4.0 12.0 0.00 0.00 0.00 43 1008.1
20200811042422 81 159 3.0 9.0 0.00 0.00 0.00 42 1008.0
20200811041921 82 205 4.0 7.0 0.00 0.00 0.00 42 1007.9
20200811041422 82 207 3.0 7.0 0.00 0.00 0.00 42 1007.9
20200811040919 83 205 3.0 6.0 0.00 0.00 0.00 41 1007.8
20200811040419 83 180 3.0 6.0 0.00 0.00 0.00 41 1007.8
20200811035915 84 170 3.0 5.0 0.00 0.00 0.00 41 1007.9
20200811035416 84 200 3.0 7.0 0.00 0.00 0.00 40 1007.8
20200811034915 85 175 3.0 7.0 0.00 0.00 0.00 40 1007.8
20200811034415 85 199 3.0 6.0 0.00 0.00 0.00 40 1007.9
20200811033918 86 206 3.0 6.0 0.00 0.00 0.00 39 1007.8
20200811033413 86 166 3.0 9.0 0.00 0.00 0.00 39 1007.7
20200811032914 87 259 3.0 9.0 0.00 0.00 0.00 38 1007.6
20200811032412 88 191 2.0 7.0 0.00 0.00 0.00 38 1007.7
20200811031913 88 199 2.0 5.0 0.00 0.00 0.00 37 1007.8
20200811031407 89 220 3.0 7.0 0.00 0.00 0.00 37 1007.7
20200811030910 89 233 3.0 7.0 0.00 0.00 0.00 37 1007.8
20200811030359 90 223 2.0 6.0 0.00 0.00 0.00 37 1007.8
20200811025852 90 139 2.0 6.0 0.00 0.00 0.00 36 1007.8
20200811025351 91 223 4.0 10.0 0.00 0.00 0.00 36 1007.9
20200811024849 91 238 5.0 10.0 0.00 0.00 0.00 35 1007.8
20200811024349 92 196 3.0 9.0 0.00 0.00 0.00 35 1007.6
20200811023849 92 236 3.0 10.0 0.00 0.00 0.00 34 1007.8
20200811022845 93 194 4.0 9.0 0.00 0.00 0.00 33 1007.7
20200811022346 93 251 4.0 12.0 0.00 0.00 0.00 33 1007.7
20200811021846 93 191 5.0 12.0 0.00 0.00 0.00 33 1007.7
20200811021340 94 230 7.0 15.0 0.00 0.00 0.00 33 1007.9
20200811020842 94 237 7.0 15.0 0.00 0.00 0.00 33 1007.7
20200811020340 95 250 7.0 15.0 0.00 0.00 0.00 32 1007.6
20200811015840 96 253 7.0 15.0 0.00 0.00 0.00 32 1007.7
20200811015342 96 244 6.0 14.0 0.00 0.00 0.00 32 1007.6
20200811014841 96 236 5.0 11.0 0.00 0.00 0.00 32 1007.5
20200811014341 97 242 6.0 10.0 0.00 0.00 0.00 32 1007.6
20200811013843 97 238 6.0 6.0 0.00 0.00 0.00 31 1007.5
20200811012326 99 219 6.0 13.0 0.00 0.00 0.00 31 1007.7
20200811011821 100 213 6.0 13.0 0.00 0.00 0.00 31 1007.7
20200811011322 100 214 7.0 13.0 0.00 0.00 0.00 30 1007.6
20200811010818 101 229 7.0 13.0 0.00 0.00 0.00 30 1007.6
20200811010318 101 221 6.0 13.0 0.00 0.00 0.00 29 1007.8
20200811005821 102 229 5.0 11.0 0.00 0.00 0.00 29 1007.7
20200811005317 102 242 4.0 11.0 0.00 0.00 0.00 29 1007.9
20200811004818 102 198 4.0 10.0 0.00 0.00 0.00 28 1008.0
20200811004317 103 219 5.0 10.0 0.00 0.00 0.00 29 1008.0
20200811003817 103 242 4.0 10.0 0.00 0.00 0.00 29 1008.0
20200811003417 103 234 4.0 10.0 0.00 0.00 0.00 29 1008.1
20200811001645 104 220 4.0 10.0 0.00 0.00 0.00 27 1008.2
20200811000119 104 241 6.0 11.0 0.00 0.00 0.00 28 1008.1
20200810235514 103 238 5.0 11.0 0.00 0.00 0.00 27 1008.1
20200810234855 103 0 2.0 5.0 0.00 0.00 0.00 28 1008.2
20200810233912 103 215 4.0 12.0 0.00 0.00 0.00 26 1008.1
20200810233309 103 234 4.0 7.0 0.00 0.00 0.00 27 1008.2
20200810233135 103 232 3.0 7.0 0.00 0.00 0.00 26 1008.4
20200810232423 104 241 3.0 7.0 0.00 0.00 0.00 28 1008.5
20200810231623 103 207 4.0 7.0 0.00 0.00 0.00 28 1008.4
20200810224129 101 76 1.0 4.0 0.00 0.00 0.00 30 1008.6
20200810223533 102 190 2.0 6.0 0.00 0.00 0.00 28 1008.8
20200810222908 102 24 3.0 7.0 0.00 0.00 0.00 28 1008.8
20200810222307 102 246 4.0 10.0 0.00 0.00 0.00 29 1008.8
20200810221659 102 246 3.0 10.0 0.00 0.00 0.00 29 1008.8
20200810221153 102 168 2.0 9.0 0.00 0.00 0.00 28 1008.8
20200810220648 102 200 3.0 9.0 0.00 0.00 0.00 28 1008.9
20200810220143 102 238 3.0 1.0 0.00 0.00 0.00 29 1008.9
20200810214000 100 238 3.0 11.0 0.00 0.00 0.00 30 1009.3
20200810213459 100 240 2.0 8.0 0.00 0.00 0.00 29 1009.2
20200810212957 100 34 3.0 8.0 0.00 0.00 0.00 30 1009.2
20200810212457 100 32 2.0 6.0 0.00 0.00 0.00 30 1009.3
20200810211958 100 28 4.0 7.0 0.00 0.00 0.00 31 1009.4
20200810211452 99 257 5.0 7.0 0.00 0.00 0.00 30 1009.4
20200810210826 98 216 3.0 10.0 0.00 0.00 0.00 30 1009.3
20200810205558 98 254 2.0 10.0 0.00 0.00 0.00 31 1009.3
20200810204924 97 9 2.0 7.0 0.00 0.00 0.00 32 1009.4
20200810204424 97 205 2.0 5.0 0.00 0.00 0.00 32 1009.4
20200810203923 97 252 2.0 5.0 0.00 0.00 0.00 31 1009.5
20200810203420 97 313 1.0 5.0 0.00 0.00 0.00 33 1009.6
20200810202919 96 55 1.0 6.0 0.00 0.00 0.00 32 1009.6
20200810202418 96 55 2.0 6.0 0.00 0.00 0.00 32 1009.6
20200810201906 96 333 2.0 6.0 0.00 0.00 0.00 31 1009.6
20200810201404 96 244 2.0 6.0 0.00 0.00 0.00 33 1009.7
20200810200900 96 223 3.0 9.0 0.00 0.00 0.00 32 1009.8
20200810200358 96 242 3.0 9.0 0.00 0.00 0.00 32 1009.8
20200810195901 96 333 2.0 5.0 0.00 0.00 0.00 33 1009.8
20200810195400 95 233 2.0 5.0 0.00 0.00 0.00 33 1009.9
20200810194902 95 299 2.0 6.0 0.00 0.00 0.00 32 1010.0
20200810194346 95 22 3.0 6.0 0.00 0.00 0.00 33 1010.1
20200810193847 94 257 3.0 6.0 0.00 0.00 0.00 34 1010.1
20200810193346 94 233 2.0 6.0 0.00 0.00 0.00 33 1010.1
20200810192846 95 242 2.0 6.0 0.00 0.00 0.00 33 1010.1
20200810192346 95 243 3.0 9.0 0.00 0.00 0.00 33 1010.3
20200810191844 95 226 4.0 10.0 0.00 0.00 0.00 34 1010.2
20200810191342 94 237 3.0 9.0 0.00 0.00 0.00 33 1010.3
20200810190841 94 167 3.0 9.0 0.00 0.00 0.00 33 1010.4
20200810190347 93 237 3.0 9.0 0.00 0.00 0.00 34 1010.4
20200810185834 93 225 2.0 3.0 0.00 0.00 0.00 34 1010.4
20200810184555 92 210 3.0 7.0 0.00 0.00 0.00 34 1010.5
20200810184047 92 284 2.0 7.0 0.00 0.00 0.00 35 1010.5
20200810183549 92 338 2.0 5.0 0.00 0.00 0.00 34 1010.5
20200810183046 92 257 2.0 5.0 0.00 0.00 0.00 34 1010.5
20200810182547 92 9 2.0 6.0 0.00 0.00 0.00 36 1010.5
20200810182048 91 250 3.0 9.0 0.00 0.00 0.00 35 1010.4
20200810181547 92 234 3.0 9.0 0.00 0.00 0.00 34 1010.3
20200810181046 92 12 3.0 6.0 0.00 0.00 0.00 33 1010.5
20200810180539 92 226 3.0 6.0 0.00 0.00 0.00 35 1010.5
20200810180040 92 211 2.0 6.0 0.00 0.00 0.00 34 1010.4
20200810175545 91 199 2.0 2.0 0.00 0.00 0.00 34 1010.5
20200810174021 91 213 2.0 4.0 0.00 0.00 0.00 35 1010.4
20200810173521 90 221 2.0 6.0 0.00 0.00 0.00 35 1010.6
20200810173009 90 241 1.0 6.0 0.00 0.00 0.00 34 1010.5
20200810172506 90 231 1.0 3.0 0.00 0.00 0.00 34 1010.5
20200810172009 90 228 2.0 5.0 0.00 0.00 0.00 35 1010.5
20200810171458 89 228 1.0 5.0 0.00 0.00 0.00 35 1010.5
20200810170933 89 217 0.0 3.0 0.00 0.00 0.00 35 1010.4
20200810170442 88 218 1.0 4.0 0.00 0.00 0.00 34 1010.4
20200810165915 87 219 2.0 4.0 0.00 0.00 0.00 36 1010.5
20200810165412 87 200 2.0 4.0 0.00 0.00 0.00 35 1010.5
20200810164832 86 199 2.0 4.0 0.00 0.00 0.00 36 1010.4
20200810164334 86 220 1.0 4.0 0.00 0.00 0.00 36 1010.3
20200810163834 85 203 0.0 3.0 0.00 0.00 0.00 36 1010.5
20200810163409 85 204 1.0 4.0 0.00 0.00 0.00 36 1010.6
20200810163144 84 205 1.0 4.0 0.00 0.00 0.00 35 1010.6
20200810162837 84 210 1.0 3.0 0.00 0.00 0.00 37 1010.6
20200810162249 83 213 2.0 5.0 0.00 0.00 0.00 37 1010.4
20200810161714 82 216 3.0 5.0 0.00 0.00 0.00 38 1010.5
20200810160814 82 195 2.0 5.0 0.00 0.00 0.00 36 1010.4
20200810160320 82 196 2.0 5.0 0.00 0.00 0.00 37 1010.4
20200810155948 81 206 2.0 5.0 0.00 0.00 0.00 38 1010.4
20200810155333 80 221 1.0 4.0 0.00 0.00 0.00 40 1010.4
20200810154320 80 191 1.0 3.0 0.00 0.00 0.00 40 1010.3
20200810152759 78 226 2.0 5.0 0.00 0.00 0.00 42 1010.2
20200810152310 77 174 3.0 5.0 0.00 0.00 0.00 42 1010.1
20200810151758 76 207 2.0 6.0 0.00 0.00 0.00 43 1010.0
20200810151753 77 193 2.0 6.0 0.00 0.00 0.00 43 1010.0
20200810150803 76 186 2.0 4.0 0.00 0.00 0.00 43 1009.9
20200810145959 75 197 1.0 4.0 0.00 0.00 0.00 45 1009.9
20200810145956 76 189 2.0 4.0 0.00 0.00 0.00 44 1010.0
20200810144259 75 182 0.0 2.0 0.00 0.00 0.00 45 1009.9
20200810143750 74 218 0.0 2.0 0.00 0.00 0.00 46 1009.8
20200810143239 74 219 0.0 0.0 0.00 0.00 0.00 45 1009.8
20200810141914 72 219 0.0 2.0 0.00 0.00 0.00 49 1009.7
20200810132039 69 206 3.0 5.0 0.00 0.00 0.00 49 1009.1
20200810131254 69 200 3.0 7.0 0.00 0.00 0.00 49 1009.0
20200810130827 69 198 3.0 7.0 0.00 0.00 0.00 49 1008.9
20200810125248 69 197 4.0 6.0 0.00 0.00 0.00 49 1009.0
20200810124746 69 194 4.0 3.0 0.00 0.00 0.00 48 1008.8
20200810123327 70 209 4.0 10.0 0.00 0.00 0.00 48 1008.8
20200810123106 70 203 4.0 10.0 0.00 0.00 0.00 48 1008.8
20200810121819 71 200 4.0 9.0 0.00 0.00 0.00 47 1008.9
20200810121317 71 200 4.0 7.0 0.00 0.00 0.00 47 1008.8
20200810120323 71 213 4.0 3.0 0.00 0.00 0.00 47 1008.7
20200810115114 71 198 4.0 10.0 0.00 0.00 0.00 47 1008.7
20200810114614 72 221 4.0 9.0 0.00 0.00 0.00 47 1008.7
20200810114111 72 201 4.0 9.0 0.00 0.00 0.00 48 1008.7
20200810113612 72 172 4.0 10.0 0.00 0.00 0.00 48 1008.8
20200810113111 72 209 4.0 10.0 0.00 0.00 0.00 48 1008.8
20200810112611 72 212 4.0 9.0 0.00 0.00 0.00 48 1008.7
20200810112108 72 171 4.0 9.0 0.00 0.00 0.00 48 1008.7
20200810111610 72 178 3.0 7.0 0.00 0.00 0.00 48 1008.7
20200810111107 73 192 3.0 6.0 0.00 0.00 0.00 48 1008.6
20200810110606 73 227 3.0 6.0 0.00 0.00 0.00 47 1008.6
20200810110106 73 190 3.0 7.0 0.00 0.00 0.00 47 1008.6
20200810105600 73 194 3.0 7.0 0.00 0.00 0.00 47 1008.6
20200810105055 73 214 3.0 6.0 0.00 0.00 0.00 46 1008.5
20200810104557 73 206 3.0 6.0 0.00 0.00 0.00 46 1008.5
20200810104055 73 199 3.0 6.0 0.00 0.00 0.00 46 1008.6
20200810103554 73 194 3.0 4.0 0.00 0.00 0.00 46 1008.5
20200810102036 73 196 2.0 4.0 0.00 0.00 0.00 47 1008.6
20200810101433 73 204 3.0 5.0 0.00 0.00 0.00 47 1008.5
20200810094911 73 178 3.0 5.0 0.00 0.00 0.00 46 1008.5
20200810094414 73 215 3.0 7.0 0.00 0.00 0.00 46 1008.5
20200810093931 73 231 3.0 9.0 0.00 0.00 0.00 46 1008.6
20200810092225 74 225 3.0 7.0 0.00 0.00 0.00 45 1008.5
20200810091359 74 207 3.0 7.0 0.00 0.00 0.00 45 1008.5
20200810090857 74 200 3.0 7.0 0.00 0.00 0.00 44 1008.6
20200810090501 75 204 3.0 6.0 0.00 0.00 0.00 44 1008.6
20200810090032 75 203 4.0 7.0 0.00 0.00 0.00 44 1008.7
20200810084923 75 213 3.0 7.0 0.00 0.00 0.00 44 1008.6
20200810084434 75 193 3.0 7.0 0.00 0.00 0.00 44 1008.6
20200810081904 76 207 4.0 7.0 0.00 0.00 0.00 43 1008.7
20200810081404 77 178 4.0 7.0 0.00 0.00 0.00 43 1008.7
20200810080859 77 205 4.0 7.0 0.00 0.00 0.00 43 1008.8
20200810080401 78 205 3.0 6.0 0.00 0.00 0.00 43 1009.0
20200810075900 78 188 3.0 5.0 0.00 0.00 0.00 42 1008.9
20200810074854 79 238 3.0 6.0 0.00 0.00 0.00 42 1008.9